Lafayette, LA

8:36 AM CST on February 22, 2017 (GMT -0600)
Lafayette Regional

Weather History for KLFT - March, 2012

Change the Weather History Date:

Monday, March 19, 2012

  Actual Average Record
Temperature  
Mean Temperature 74 °F 63 °F  
Max Temperature 79 °F 73 °F 87 °F (1955)
Min Temperature 69 °F 53 °F 29 °F (1923)
Degree Days  
Heating Degree Days 0 4  
Month to date heating degree days 36 109  
Since 1 July heating degree days 1029 1339  
Cooling Degree Days 9 2  
Month to date cooling degree days 106 32  
Year to date cooling degree days 174 64  
Growing Degree Days 24 (Base 50)    
Moisture  
Dew Point 66 °F    
Average Humidity 76    
Maximum Humidity 90    
Minimum Humidity 62    
Precipitation  
Precipitation 0.00 in 0.11 in 3.79 in (1905)
Month to date precipitation 4.13 2.41  
Year to date precipitation 15.69 12.53  
Snow  
Snow 0.00 in 0.00 in 0.00 in ()
Month to date snowfall 0.0 0.0  
Since 1 July snowfall 0.0 T  
Snow Depth 0.00 in    
Sea Level Pressure  
Sea Level Pressure 30.00 in    
Wind  
Wind Speed 8 mph (SSE)    
Max Wind Speed 20 mph    
Max Gust Speed 30 mph    
Visibility 10 miles    
Events      
T = Trace of Precipitation, MM = Missing Value Source: NWS Daily Summary

Daily Weather History Graph

Daily Weather History Graph

Search for Another Location

Airport or City:

Trip Planner

Search our weather history database for the weather conditions in past years. The results will help you decide how hot, cold, wet, or windy it might be!

Date:

Astronomy

Mar. 19, 2012 Rise Set
Actual Time 7:12 AM CDT 7:19 PM CDT
Civil Twilight 6:48 AM CDT 7:43 PM CDT
Nautical Twilight 6:20 AM CDT 8:10 PM CDT
Astronomical Twilight 5:52 AM CDT 8:39 PM CDT
Moon 5:14 AM CDT (3/19) 4:56 PM CDT (3/19)
Length of Visible Light 12h 54m
Length of Day
12h 06m
Waning Crescent, 8% of the Moon is Illuminated
Mar 19
Waning Crescent
Mar 22
New
Mar 30
First Quarter
Apr 6
Full
Apr 13
Last Quarter

Hourly Weather History & Observations

Time (CDT) Temp. Dew Point Humidity Pressure Visibility Wind Dir Wind Speed Gust Speed Precip Events Conditions
12:53 AM 71.1 °F 66.9 °F 87% 30.06 in 10.0 mi SE 5.8 mph - N/A   Partly Cloudy
1:53 AM 71.1 °F 66.9 °F 87% 30.05 in 10.0 mi Variable 5.8 mph - N/A   Partly Cloudy
2:53 AM 71.1 °F 66.9 °F 87% 30.03 in 10.0 mi SE 5.8 mph - N/A   Scattered Clouds
3:53 AM 70.0 °F 66.9 °F 90% 30.01 in 10.0 mi Variable 4.6 mph - N/A   Scattered Clouds
4:53 AM 70.0 °F 66.9 °F 90% 30.01 in 10.0 mi SE 3.5 mph - N/A   Scattered Clouds
5:12 AM 69.8 °F 66.2 °F 88% 30.01 in 10.0 mi SE 3.5 mph - N/A   Mostly Cloudy
5:43 AM 69.8 °F 66.2 °F 88% 30.02 in 10.0 mi Variable 3.5 mph - N/A   Scattered Clouds
5:53 AM 69.1 °F 66.9 °F 93% 30.02 in 10.0 mi Variable 3.5 mph - N/A   Mostly Cloudy
6:41 AM 69.8 °F 66.2 °F 88% 30.02 in 10.0 mi Calm Calm - N/A   Overcast
6:53 AM 69.8 °F 66.2 °F 88% 30.03 in 10.0 mi Calm Calm - N/A   Overcast
7:08 AM 69.8 °F 66.2 °F 88% 30.03 in 10.0 mi SSE 3.5 mph - N/A   Overcast
7:44 AM 69.8 °F 66.2 °F 88% 30.03 in 9.0 mi Variable 4.6 mph - N/A   Mostly Cloudy
7:53 AM 70.0 °F 66.9 °F 90% 30.03 in 9.0 mi Variable 5.8 mph - N/A   Mostly Cloudy
8:09 AM 69.8 °F 66.2 °F 88% 30.03 in 9.0 mi SE 5.8 mph - N/A   Scattered Clouds
8:53 AM 71.1 °F 66.9 °F 87% 30.04 in 10.0 mi SE 4.6 mph - N/A   Scattered Clouds
8:58 AM 71.6 °F 68.0 °F 88% 30.04 in 10.0 mi SSE 4.6 mph - N/A   Mostly Cloudy
9:53 AM 73.4 °F 68.0 °F 83% 30.03 in 10.0 mi Variable 5.8 mph - N/A   Mostly Cloudy
10:00 AM 73.4 °F 68.0 °F 83% 30.03 in 10.0 mi Variable 6.9 mph - N/A   Mostly Cloudy
10:15 AM 73.4 °F 66.2 °F 78% 30.03 in 10.0 mi SSE 8.1 mph 18.4 mph N/A   Mostly Cloudy
10:42 AM 73.4 °F 66.2 °F 78% 30.02 in 10.0 mi SSE 8.1 mph 20.7 mph N/A   Scattered Clouds
10:53 AM 75.0 °F 66.9 °F 76% 30.02 in 10.0 mi SSE 12.7 mph 23.0 mph N/A   Mostly Cloudy
11:10 AM 75.2 °F 66.2 °F 73% 30.02 in 10.0 mi South 11.5 mph 25.3 mph N/A   Mostly Cloudy
11:22 AM 75.2 °F 66.2 °F 73% 30.02 in 10.0 mi South 15.0 mph 24.2 mph N/A   Mostly Cloudy
11:53 AM 75.0 °F 66.0 °F 73% 30.03 in 10.0 mi SSE 12.7 mph 20.7 mph N/A   Mostly Cloudy
12:53 PM 75.0 °F 66.0 °F 73% 30.01 in 10.0 mi SE 12.7 mph 24.2 mph N/A   Mostly Cloudy
1:53 PM 75.9 °F 64.9 °F 69% 29.98 in 10.0 mi SSE 13.8 mph 26.5 mph N/A   Scattered Clouds
2:53 PM 78.1 °F 64.9 °F 64% 29.98 in 10.0 mi South 15.0 mph 24.2 mph N/A   Mostly Cloudy
3:53 PM 78.1 °F 64.9 °F 64% 29.98 in 10.0 mi SSE 13.8 mph 26.5 mph N/A   Mostly Cloudy
4:53 PM 78.1 °F 64.0 °F 62% 29.94 in 10.0 mi SE 12.7 mph 23.0 mph N/A   Mostly Cloudy
5:53 PM 75.0 °F 64.0 °F 69% 29.92 in 10.0 mi SSE 10.4 mph 19.6 mph N/A   Clear
6:53 PM 75.2 °F 62.6 °F 65% 29.93 in 10.0 mi South 13.8 mph 20.7 mph N/A   Scattered Clouds
7:53 PM 73.0 °F 63.0 °F 71% 29.93 in 10.0 mi SSE 6.9 mph - N/A   Clear
8:53 PM 72.0 °F 64.0 °F 76% 29.92 in 10.0 mi Variable 6.9 mph - N/A   Clear
9:53 PM 72.0 °F 64.0 °F 76% 29.91 in 10.0 mi SE 8.1 mph - N/A   Clear
10:53 PM 71.1 °F 64.9 °F 81% 29.91 in 10.0 mi SSE 8.1 mph - N/A   Mostly Cloudy
11:53 PM 71.1 °F 66.0 °F 84% 29.89 in 10.0 mi SSE 5.8 mph - N/A   Mostly Cloudy